Weather Roundup
Issued by NWS

Home | Current Version | Previous Version | Text Only | Print | Product List | Glossary On
Versions: 1 2 3 4 5 6 7 8 9 10 11 12 13 14 15 16 17 18 19 20 21 22 23 24 25 26 27 28 29 30 31 32 33 34 35 36 37 38 39 40 41 42 43 44 45 46 47 48 49 50
730
NZUS93 KARX 231910
HRRWXR

CURRENT HOURLY OBSERVATIONS ACROSS
MUCH OF THE UPPER MISSISSIPPI VALLEY
NATIONAL WEATHER SERVICE LA CROSSE WI
200 PM CDT FRI JUN 23 2017


...SOUTHEAST MINNESOTA...


CITY           SKY/WX    TMP DP  RH WIND       PRES   REMARKS
ROCHESTER      PTSUNNY   68  57  68 NW16G24   29.83S
ROCHESTER/MAYO CLOUDY    66  52  61 W18       29.82S
WINONA         CLOUDY    70  54  56 NW14G21   29.79S
AUSTIN         CLOUDY    66  54  63 NW17G28   29.84F
ALBERT LEA     CLOUDY    64  55  72 W9G23     29.86S
DODGE CENTER   CLOUDY    64  54  68 W18       29.84S
PRESTON        CLOUDY    65  53  63 NW14G20   29.82S
OWATONNA       PTSUNNY   68  57  68 NW16G22   29.84F
FARIBAULT      PTSUNNY   66  55  68 W12       29.84S
$$

...ELSEWHERE IN MINNESOTA...


CITY           SKY/WX    TMP DP  RH WIND       PRES   REMARKS
MINNEAPOLIS    PTSUNNY   72  50  45 NW15G29   29.80S
INTNL FALLS    PTSUNNY   65  51  60 NW9       29.72R
DULUTH         PTSUNNY   67  49  52 NW14G21   29.71S
RED WING       PTSUNNY   70  50  49 NW7       29.79R
REDWOOD FALLS  CLOUDY    67  51  56 NW23G33   29.89S
MANKATO        LGT RAIN  62  56  80 NW18G24   29.87S
WORTHINGTON    CLOUDY    62  51  67 NW16G26   29.96F
FAIRMONT       CLOUDY    68  55  63 NW18G24   29.90
$$

...SOUTHWEST WISCONSIN...


CITY           SKY/WX    TMP DP  RH WIND       PRES   REMARKS
LA CROSSE      MOSUNNY   78  54  43 NW17      29.76R
PRAIRIE DU CHI MOSUNNY   75  53  45 W18       29.76S
BOSCOBEL       MOSUNNY   79  52  38 W16G23    29.74S
LONE ROCK      SUNNY     77  49  37 W22G31    29.72S
PLATTEVILLE    MOSUNNY   78  54  43 W18G26    29.75S
FORT MC COY    PTSUNNY   72  54  53 NW15G21   29.75S
CAMP DOUGLAS   PTSUNNY   73  55  53 W13G26    29.72R
MAUSTON-NEW LI PTCLDY    74  55  51 NW16G25   29.72S
VIROQUA        MOCLDY    71  56  59 W14G20    29.77S
WIS DELLS      MOSUNNY   77  46  32 W13G23    29.72R
$$

...ELSEWHERE IN WISCONSIN...


CITY           SKY/WX    TMP DP  RH WIND       PRES   REMARKS
MILWAUKEE      MOSUNNY   81  44  27 NW16      29.69R
MADISON        PTSUNNY   78  53  41 W14G20    29.70F
GREEN BAY      MOSUNNY   77  55  46 W20G25    29.64S
EAU CLAIRE     PTSUNNY   70  53  54 W18G25    29.75R
BLACK RVR FLS  FAIR      72  51  47 NW10G18   29.75S
MEDFORD        CLOUDY    66  51  59 W14G22    29.73R
WAUSAU         CLOUDY    69  51  52 NW13G24   29.69R
WIS RAPIDS     LGT RAIN  75  51  43 W15G21    29.72R
MARSHFIELD     MOSUNNY   70  51  51 NW21G29   29.72R
RICE LAKE      PTSUNNY   68  49  50 NW14G22   29.76F
$$

...NORTHEAST IOWA...


CITY           SKY/WX    TMP DP  RH WIND       PRES   REMARKS
WATERLOO       CLOUDY    70  53  54 NW21G29   29.84R
DUBUQUE        MOSUNNY   78  54  43 W18G30    29.77S
DECORAH        PTSUNNY   70  54  56 NW16G31   29.80S
MASON CITY     CLOUDY    68  54  60 NW24      29.88F
CHARLES CITY   CLOUDY    68  55  64 NW14G28   29.86R
OELWEIN        PTSUNNY   70  55  60 NW23G31   29.84R
$$

...ELSEWHERE IN IOWA...


CITY           SKY/WX    TMP DP  RH WIND       PRES   REMARKS
DES MOINES     CLOUDY    73  51  46 NW18G30   29.89S
IOWA CITY      PTSUNNY   83  54  36 NW22      29.80S
FORT DODGE     PTSUNNY   70  52  52 NW15      29.93R
MARSHALLTOWN   PTSUNNY   70  54  56 NW20G31   29.87S
CEDAR RAPIDS   SUNNY     76  58  53 NW17G26   29.81R
$$

...NORTHERN ILLINOIS...


CITY           SKY/WX    TMP DP  RH WIND       PRES   REMARKS
CHICAGO-OHARE  PTSUNNY   81  46  29 NW12      29.71S
CHICAGO-MIDWAY CLOUDY    82  49  31 N13       29.71S
MOLINE         MOSUNNY   83  56  39 NW13      29.76F
ROCKFORD       PTSUNNY   81  52  36 NW14G23   29.74S
PEORIA         MOSUNNY   82  53  36 N9        29.76S
$$

NOTE: "FAIR" INDICATES FEW OR NO CLOUDS BELOW 12,000 FEET WITH NO
SIGNIFICANT WEATHER AND/OR OBSTRUCTIONS TO VISIBILITY. WIND
SPEEDS ARE IN MILES-PER-HOUR.




USA.gov is the U.S. government's official web portal to all federal, state and local government web resources and services.